Location: Santa Cristina
(46.5667°N, 11.7167°E)
Time: 17:41:10
(UTC+00:00)

ADEOS Rocket - Pass Details

Date: 21 April 2021
Orbit: 859 x 1306 km, 98.7° (Epoch: 11 May)

Event Time Altitude Azimuth Distance (km) Brightness Sun altitude
Exits shadow 02:21:30 15° 185° (S) 2,456 4.7 -17.8°
Maximum altitude 02:26:47 57° 261° (W) 1,286 3.3 -17.1°
Drops below altitude 10° 02:33:49 10° 339° (NNW) 3,138 5.9 -16.2°
Sets 02:36:39 0° 344° (NNW) 4,161 6.6 -15.8°
